Weather in Yulamanovo

Russia / Kurgan Oblast     54°47′52″N   62°57′36″E
temp.,
°C
wind,
m/s
gust,
m/s
humid.,
%
clouds,
%
prec.,
mm/h
press.,
hPa
HPBL,
m
7 may, fri
fri723:00+8wnw49530 0.0 1018237
02:00+7w36580 0.0 101995
05:00+6wnw34722 0.0 102044
08:00+10nw23570 0.0 1021298
11:00+15wsw33380 0.0 10221329
14:00+18wsw33305 0.0 10211584
17:00+19sw22260 0.0 10201904
20:00+16s22343 0.0 102012
8 may, sat
sat823:00+13s333873 0.0 102031
02:00+12s3341100 0.0 102035
05:00+11s2243100 0.0 102014
08:00+14sse2335100 0.0 1020219
11:00+18se2226100 0.0 10191500
14:00+20e2221100 0.0 10172370
17:00+21ene222090 0.0 10162734
20:00+18ne333099 0.0 101640
9 may, sun
sun923:00+16ne3334100 0.0 101653
02:00+14wnw1145100 0.0 101631
05:00+13n3542100 0.0 1016110
08:00+17ne463972 0.0 10161281
11:00+20ne672971 0.0 10152278
14:00+22ne782382 0.0 10142965
17:00+22ne682797 0.0 10142754
20:00+19nne6113792 0.0 1015362
10 may, mon
mon1023:00+16nne5124096 0.0 1015297
02:00+14nne5104813 0.0 1016199
05:00+11ne486085 0.0 1018159
08:00+16ene345114 0.0 1020343
11:00+21ene46372 0.0 10201723
14:00+23ene55269 0.0 10202618
17:00+23e432485 0.0 10202700
20:00+20ese223420 0.0 102119
11 may, tue
tue1123:00+16ssw3338100 0.0 102228
02:00+15sw4739100 0.0 1021102
05:00+15nw5949100 0.0 1022328
08:00+13nnw61177100 0.1 1024574
11:00+11nnw698199 2.2 1026753
14:00+14n785444 0.0 10261489
17:00+17n78295 0.0 10262047
20:00+14n363844 0.0 1027112